Regional Weather Roundup
Issued by NWS State College, PA

Home | Current Version | Previous Version | Text Only | Print | Product List | Glossary Off
Versions: 1 2 3 4 5 6 7 8 9 10 11 12 13 14 15 16 17 18 19 20 21 22 23 24 25 26 27 28 29 30 31 32 33 34 35 36 37 38 39 40 41 42 43 44 45 46 47 48 49 50

000
ASUS41 KCTP 011510
RWRCTP

REGIONAL WEATHER ROUNDUP
NATIONAL WEATHER SERVICE STATE COLLEGE PA
1100 AM EDT SAT AUG 01 2015

Note: "fair" indicates few or no clouds below 12,000 feet with no
significant weather and/or obstructions to visibility.

* = STATION THAT DOES NOT REPORT PRECIPITATION /E.G. RAIN...SNOW...ETC/
    THUNDER OR FOG.

PAZ002>004-007>009-013>016-020>023-029>032-011600-
WESTERN PENNSYLVANIA

CITY           SKY/WX    TMP DP  RH WIND       PRES   REMARKS
ERIE           SUNNY     76  57  51 W9        29.92S
MEADVILLE      MOSUNNY   75  57  53 W9        29.94F
FRANKLIN*      MOSUNNY   73  55  53 NW7       29.96S
NEW CASTLE     PTSUNNY   77  60  55 W7        29.95S
BEAVER COUNTY  MOSUNNY   75  55  50 NW8       29.95S
BUTLER*        MOSUNNY   75  57  53 W8        29.96S
PITTSBURGH INT MOSUNNY   77  57  50 W7        29.95S
PITTSBURGH     MOSUNNY   76  50  40 NW6       29.94S
INDIANA*       MOSUNNY   75  59  57 NW8       29.97S
LATROBE        MOSUNNY   75  59  57 NW12      29.95S
WASHINGTON CO* NOT AVBL
$$

PAZ004>006-010>012-017>019-024>028-033>037-041-042-045-046-049>053-011600-
CENTRAL PENNSYLVANIA

CITY           SKY/WX    TMP DP  RH WIND       PRES   REMARKS
BRADFORD       MOSUNNY   71  53  52 W10       29.94S
DUBOIS         MOSUNNY   74  55  51 W9        29.94R
CLEARFIELD     MOSUNNY   76  55  48 NW12      29.93S
JOHNSTOWN      MOSUNNY   71  56  58 W8        29.98R
ALTOONA        MOSUNNY   77  58  51 NW6G17    29.95R
STATE COLLEGE  MOSUNNY   75  59  57 W12       29.91S
WILLIAMSPORT   MOSUNNY   79  61  53 SW9       29.85S
SELINSGROVE    MOSUNNY   81  62  52 W8G16     29.87R
FT INDIANTOWN  SUNNY     81  56  42 W10G20    29.86
CAPITAL CITY   SUNNY     83  58  42 W8        29.86S
HARRISBURG     MOSUNNY   83  58  42 W12       29.86S
YORK           SUNNY     80  65  59 SW7       29.88S
$$

PAZ038>040-043-044-047-048-054-055-060>062-067>071-011600-
EASTERN PENNSYLVANIA

CITY           SKY/WX    TMP DP  RH WIND       PRES   REMARKS
SCRANTON       SUNNY     78  62  57 VRB5      29.85S
MOUNT POCONO   MOSUNNY   76  55  48 W16G25    29.88F
ALLENTOWN      SUNNY     81  62  52 W9        29.84S
QUAKERTOWN*    SUNNY     81  63  54 W8        29.86S
READING        MOSUNNY   82  63  52 W12       29.85R
LANCASTER      SUNNY     80  63  55 W12       29.87S
COATESVILLE    SUNNY     79  63  57 W7        29.89R
POTTSTOWN      SUNNY     80  62  54 W6        29.86F
BLUE BELL      SUNNY     81  64  57 W7        29.85S
DOYLESTOWN     MOSUNNY   79  62  56 SW8       29.84S
WILLOW GROVE   NOT AVBL
NORTH PHILA    PTSUNNY   84  59  42 W10       29.86R
PHILADELPHIA   PTSUNNY   83  61  47 W13       29.85S
$$


USA.gov is the U.S. government's official web portal to all federal, state and local government web resources and services.